Location: Grand Mazuras
(45.9128°N, 1.7636°E)
Time: 04:02:43
(UTC+00:00)

Cosmos 2344 - Pass Details

Date: 18 April 2021
Orbit: 1241 x 3002 km, 63.3° (Epoch: 10 May)

Event Time Altitude Azimuth Distance (km) Brightness Sun altitude
Rises 20:35:49 0° 223° (SW) 4,294 6.4 -18.0°
Reaches altitude 10° 20:38:38 10° 224° (SW) 3,252 5.8 -18.3°
Maximum altitude 20:46:05 77° 311° (NW) 1,285 3.7 -19.3°
Drops below altitude 10° 20:54:04 10° 38° (NE) 3,464 5.9 -20.4°
Sets 20:57:11 0° 40° (NE) 4,594 6.5 -20.8°
